Location: Peebles
(55.6412°N, 3.1714°W)
Time: 09:36:29
(UTC+01:00)

NOSS 3-3 (A) - Pass Details

Date: 05 February 2022
Orbit: 789 x 1423 km, 63.4° (Epoch: 23 April)

Event Time Altitude Azimuth Distance (km) Brightness Sun altitude
Exits shadow 04:53:18 - 180° (S) 2,608 6.1 -26.2°
Reaches altitude 10° 04:53:38 10° 179° (S) 2,498 6.0 -26.2°
Maximum altitude 04:58:40 32° 118° (ESE) 1,562 5.5 -25.5°
Drops below altitude 10° 05:04:20 10° 58° (ENE) 2,840 7.3 -24.7°
Sets 05:07:25 0° 50° (NE) 3,906 8.0 -24.2°
